W4OA Weather Reports


time (UTC)temp
C
wind
direction
speed
KPH
gust
KPH
rain 1hr
cm
rain 24hr
cm
rain mn
cm
humidity
%
barometer
mb
20260505035459 16 23 0.0 0.0 0.00 0.00 0.00 58 1008.0
20260505035002 17 23 0.0 0.0 0.00 0.00 0.00 61 1008.0
20260505034458 17 23 0.0 0.0 0.00 0.00 0.00 59 1008.0
20260505033959 17 0 0.0 0.0 0.00 0.00 0.00 57 1008.0
20260505033458 17 0 0.0 0.0 0.00 0.00 0.00 53 1008.0
20260505032958 17 338 0.0 0.0 0.00 0.00 0.00 54 1008.0
20260505032458 17 0 0.0 0.0 0.00 0.00 0.00 55 1008.0
20260505031959 17 45 0.0 0.0 0.00 0.00 0.00 54 1008.0
20260505031458 17 338 0.0 0.0 0.00 0.00 0.00 55 1008.0
20260505030958 17 23 0.0 0.0 0.00 0.00 0.00 58 1008.0
20260505030459 17 0 0.0 0.0 0.00 0.00 0.00 54 1008.0
20260505025959 17 23 0.0 0.0 0.00 0.00 0.00 58 1008.0
20260505025458 17 315 0.0 0.0 0.00 0.00 0.00 57 1009.0
20260505024958 17 0 0.0 0.0 0.00 0.00 0.00 59 1008.0
20260505024458 17 338 0.0 0.0 0.00 0.00 0.00 61 1009.0
20260505024000 17 0 0.0 0.0 0.00 0.00 0.00 60 1008.0
20260505023458 17 338 0.0 0.0 0.00 0.00 0.00 61 1008.0
20260505022958 17 23 0.0 0.0 0.00 0.00 0.00 61 1008.0
20260505022458 17 0 0.0 0.0 0.00 0.00 0.00 61 1008.0
20260505021958 17 45 0.0 0.0 0.00 0.00 0.00 59 1008.0
20260505021458 17 23 0.0 0.0 0.00 0.00 0.00 60 1008.0
20260505020958 17 315 0.0 0.0 0.00 0.00 0.00 61 1008.0
20260505020458 17 0 0.0 0.0 0.00 0.00 0.00 61 1008.0
20260505015959 17 338 0.0 0.0 0.00 0.00 0.00 59 1008.0
20260505015458 17 338 0.0 0.0 0.00 0.00 0.00 59 1008.0
20260505014959 17 338 0.0 0.0 0.00 0.00 0.00 58 1008.0
20260505014458 17 23 0.0 0.0 0.00 0.00 0.00 57 1008.0
20260505013959 18 23 0.0 0.0 0.00 0.00 0.00 56 1008.0
20260505013458 18 293 0.0 0.0 0.00 0.00 0.00 54 1008.0
20260505012958 18 0 0.0 0.0 0.00 0.00 0.00 53 1008.0
20260505012458 19 338 0.0 0.0 0.00 0.00 0.00 51 1008.0
20260505011958 18 0 0.0 0.0 0.00 0.00 0.00 51 1008.0
20260505011459 18 338 0.0 0.0 0.00 0.00 0.00 51 1008.0
20260505010958 19 0 0.0 0.0 0.00 0.00 0.00 52 1008.0
20260505010458 19 315 0.0 0.0 0.00 0.00 0.00 50 1008.0
20260505005959 20 0 0.0 0.0 0.00 0.00 0.00 48 1008.0
20260505005458 20 0 0.0 0.0 0.00 0.00 0.00 50 1008.0
20260505004958 20 0 0.0 0.0 0.00 0.00 0.00 49 1008.0
20260505004458 20 0 0.0 0.0 0.00 0.00 0.00 48 1008.0
20260505003958 20 23 0.0 0.0 0.00 0.00 0.00 46 1008.0
20260505003459 21 315 0.0 0.0 0.00 0.00 0.00 43 1008.0
20260505002959 21 315 0.0 0.0 0.00 0.00 0.00 42 1008.0
20260505002500 21 315 0.0 0.0 0.00 0.00 0.00 40 1008.0
20260505001959 22 315 0.0 0.0 0.00 0.00 0.00 39 1008.0
20260505001458 22 338 0.0 0.0 0.00 0.00 0.00 39 1008.0
20260505000958 22 293 0.0 0.0 0.00 0.00 0.00 37 1008.0
20260505000458 22 338 0.0 0.0 0.00 0.00 0.00 38 1007.0
20260504235958 23 23 0.0 0.0 0.00 0.00 0.00 36 1008.0
20260504235458 23 23 0.0 0.0 0.00 0.00 0.00 38 1008.0
20260504234959 23 68 3.2 3.2 0.00 0.00 0.00 35 1008.0
20260504234458 23 90 4.8 6.4 0.00 0.00 0.00 34 1008.0
20260504233959 24 90 0.0 1.6 0.00 0.00 0.00 36 1008.0
20260504233458 24 23 3.2 3.2 0.00 0.00 0.00 35 1008.0
20260504232959 24 113 1.6 3.2 0.00 0.00 0.00 34 1008.0
20260504232459 25 90 1.6 3.2 0.00 0.00 0.00 35 1008.0
20260504231958 25 23 1.6 3.2 0.00 0.00 0.00 36 1008.0
20260504231458 25 45 3.2 4.8 0.00 0.00 0.00 35 1008.0
20260504230958 25 90 0.0 0.0 0.00 0.00 0.00 34 1008.0
20260504230458 25 23 0.0 1.6 0.00 0.00 0.00 35 1008.0
20260504225958 25 315 3.2 3.2 0.00 0.00 0.00 36 1008.0
20260504225458 25 45 3.2 4.8 0.00 0.00 0.00 36 1008.0
20260504224958 25 68 0.0 1.6 0.00 0.00 0.00 36 1008.0
20260504224459 25 68 0.0 1.6 0.00 0.00 0.00 35 1008.0
20260504223958 25 90 0.0 0.0 0.00 0.00 0.00 34 1008.0
20260504223459 25 68 0.0 0.0 0.00 0.00 0.00 35 1008.0
20260504222958 24 338 0.0 0.0 0.00 0.00 0.00 36 1008.0
20260504222458 25 45 0.0 1.6 0.00 0.00 0.00 35 1008.0
20260504221958 25 68 4.8 6.4 0.00 0.00 0.00 35 1008.0
20260504221458 25 113 3.2 4.8 0.00 0.00 0.00 34 1008.0
20260504220517 25 68 1.6 3.2 0.00 0.00 0.00 34 1008.0
20260504215958 25 68 4.8 8.0 0.00 0.00 0.00 34 1008.0
20260504215459 26 90 0.0 0.0 0.00 0.00 0.00 34 1008.0
20260504214959 26 68 6.4 8.0 0.00 0.00 0.00 33 1008.0
20260504214458 26 68 6.4 8.0 0.00 0.00 0.00 33 1008.0
20260504213958 27 90 1.6 3.2 0.00 0.00 0.00 33 1008.0
20260504213458 27 338 0.0 0.0 0.00 0.00 0.00 33 1008.0
20260504212958 26 180 1.6 3.2 0.00 0.00 0.00 34 1008.0
20260504212458 26 293 0.0 0.0 0.00 0.00 0.00 33 1008.0
20260504211958 26 23 0.0 1.6 0.00 0.00 0.00 31 1008.0
20260504211458 26 45 3.2 3.2 0.00 0.00 0.00 31 1008.0
20260504210958 26 23 1.6 3.2 0.00 0.00 0.00 31 1008.0
20260504210459 26 68 4.8 4.8 0.00 0.00 0.00 30 1008.0
20260504205959 26 338 0.0 1.6 0.00 0.00 0.00 31 1008.0
20260504205459 25 68 4.8 4.8 0.00 0.00 0.00 32 1008.0
20260504204958 26 90 4.8 6.4 0.00 0.00 0.00 33 1008.0
20260504204458 25 225 3.2 3.2 0.00 0.00 0.00 32 1008.0
20260504203959 26 68 6.4 11.3 0.00 0.00 0.00 32 1008.0
20260504203458 25 68 6.4 9.7 0.00 0.00 0.00 32 1008.0
20260504202959 26 135 1.6 3.2 0.00 0.00 0.00 33 1008.0
20260504202458 26 68 4.8 6.4 0.00 0.00 0.00 32 1009.0
20260504201959 26 68 3.2 8.0 0.00 0.00 0.00 32 1008.0
20260504201458 26 135 3.2 3.2 0.00 0.00 0.00 32 1008.0
20260504200958 26 113 3.2 3.2 0.00 0.00 0.00 34 1008.0
20260504200458 26 68 4.8 8.0 0.00 0.00 0.00 32 1009.0
20260504195958 26 135 4.8 6.4 0.00 0.00 0.00 31 1009.0
20260504195458 26 113 1.6 3.2 0.00 0.00 0.00 32 1009.0
20260504194958 27 0 1.6 1.6 0.00 0.00 0.00 29 1009.0
20260504194458 26 68 0.0 0.0 0.00 0.00 0.00 30 1009.0
20260504193958 26 338 0.0 1.6 0.00 0.00 0.00 30 1009.0
20260504193459 26 68 1.6 4.8 0.00 0.00 0.00 30 1009.0
20260504192958 26 68 1.6 4.8 0.00 0.00 0.00 30 1009.0
20260504192458 26 90 3.2 3.2 0.00 0.00 0.00 32 1009.0
20260504191959 26 158 1.6 6.4 0.00 0.00 0.00 30 1009.0
20260504191459 26 158 3.2 3.2 0.00 0.00 0.00 30 1009.0
20260504190958 26 135 1.6 3.2 0.00 0.00 0.00 30 1009.0
20260504190459 26 158 1.6 3.2 0.00 0.00 0.00 30 1009.0
20260504185958 26 158 1.6 3.2 0.00 0.00 0.00 30 1009.0
20260504185459 26 338 0.0 0.0 0.00 0.00 0.00 29 1010.0
20260504184641 25 135 0.0 1.6 0.00 0.00 0.00 31 1009.0
20260504183959 25 90 3.2 4.8 0.00 0.00 0.00 33 1010.0
20260504183459 26 180 0.0 1.6 0.00 0.00 0.00 32 1010.0
20260504182958 26 203 0.0 1.6 0.00 0.00 0.00 29 1010.0
20260504182459 26 135 1.6 3.2 0.00 0.00 0.00 32 1010.0
20260504181958 25 90 3.2 3.2 0.00 0.00 0.00 34 1010.0
20260504181458 25 158 3.2 4.8 0.00 0.00 0.00 35 1010.0
20260504180958 24 68 0.0 1.6 0.00 0.00 0.00 34 1010.0
20260504180459 25 23 1.6 3.2 0.00 0.00 0.00 34 1010.0
20260504180000 25 315 1.6 3.2 0.00 0.00 0.00 36 1010.0
20260504175458 23 68 1.6 3.2 0.00 0.00 0.00 36 1010.0
20260504174959 23 45 0.0 1.6 0.00 0.00 0.00 36 1010.0
20260504174458 23 315 0.0 0.0 0.00 0.00 0.00 37 1010.0
20260504173958 23 90 3.2 3.2 0.00 0.00 0.00 38 1010.0
20260504173459 22 45 6.4 8.0 0.00 0.00 0.00 36 1010.0
20260504172958 23 45 0.0 0.0 0.00 0.00 0.00 37 1010.0
20260504172459 23 135 1.6 3.2 0.00 0.00 0.00 38 1011.0
20260504171958 22 203 1.6 3.2 0.00 0.00 0.00 37 1011.0
20260504171458 23 158 0.0 0.0 0.00 0.00 0.00 38 1011.0
20260504170959 23 158 1.6 3.2 0.00 0.00 0.00 37 1011.0
20260504170458 23 23 1.6 3.2 0.00 0.00 0.00 37 1011.0
20260504150958 20 135 0.0 1.6 0.00 0.00 0.00 44 1012.0
20260504150458 20 225 3.2 3.2 0.00 0.00 0.00 43 1012.0
20260504140958 18 68 3.2 4.8 0.00 0.00 0.00 46 1012.0
20260504140459 18 45 4.8 4.8 0.00 0.00 0.00 46 1012.0
20260504110458 6 293 0.0 0.0 0.00 0.00 0.00 92 1011.0
20260504100458 7 293 0.0 0.0 0.00 0.00 0.00 91 1011.0
20260504081958 7 293 0.0 0.0 0.00 0.00 0.00 87 1011.0
20260504081458 8 293 0.0 0.0 0.00 0.00 0.00 87 1011.0
20260504080958 8 0 0.0 0.0 0.00 0.00 0.00 87 1011.0
20260504080458 7 338 0.0 0.0 0.00 0.00 0.00 87 1012.0
20260504050458 9 293 0.0 0.0 0.00 0.00 0.00 85 1013.0
20260504045958 9 315 0.0 0.0 0.00 0.00 0.00 85 1013.0
20260504045458 9 338 0.0 0.0 0.00 0.00 0.00 85 1013.0
20260504044958 9 293 0.0 0.0 0.00 0.00 0.00 85 1013.0
20260504044458 9 293 0.0 0.0 0.00 0.00 0.00 85 1013.0
20260504043512 10 338 0.0 0.0 0.00 0.00 0.00 85 1013.0
20260504042958 10 338 0.0 0.0 0.00 0.00 0.00 85 1013.0
20260504042458 10 293 0.0 0.0 0.00 0.00 0.00 84 1013.0
20260504041959 10 293 0.0 0.0 0.00 0.00 0.00 84 1013.0
20260504041458 10 113 0.0 0.0 0.00 0.00 0.00 84 1013.0
20260504040959 10 338 0.0 0.0 0.00 0.00 0.00 83 1013.0
20260504040458 10 23 0.0 0.0 0.00 0.00 0.00 84 1013.0
20260504035958 10 158 0.0 0.0 0.00 0.00 0.00 84 1013.0